owner,sensor,date,latitude,longitude,vertical_datum,wind_speed,wind_to_direction,wind_speed_of_gust,qcFlag 
LUMCON,ioos:station:LUMCON:101:1,2008-05-01T00:00:00Z,29.2533,-90.6633,1.0,5.7,130.0,8.2,'11111222,11111222,11111222' 
LUMCON,ioos:station:LUMCON:101:1,2008-05-01T01:00:00Z,29.2533,-90.6633,1.0,5.7,140.0,7.2,'11111222,11111222,11111222' 
LUMCON,ioos:station:LUMCON:101:1,2008-05-01T02:00:00Z,29.2533,-90.6633,1.0,7.2,140.0,9.8,'11111222,11111222,11111222' 
LUMCON,ioos:station:LUMCON:101:1,2008-05-01T03:00:00Z,29.2533,-90.6633,1.0,5.7,160.0,7.7,'11111222,11111222,11111222' 
LUMCON,ioos:station:LUMCON:101:1,2008-05-01T04:00:00Z,29.2533,-90.6633,1.0,7.2,150.0,9.8,'11111222,11111222,11111222' 
LUMCON,ioos:station:LUMCON:101:1,2008-05-01T05:00:00Z,29.2533,-90.6633,1.0,7.7,150.0,9.3,'11111222,11111222,11111222' 
LUMCON,ioos:station:LUMCON:101:1,2008-05-01T06:00:00Z,29.2533,-90.6633,1.0,7.7,160.0,9.8,'11111222,11111222,11111222' 
LUMCON,ioos:station:LUMCON:101:1,2008-05-01T07:00:00Z,29.2533,-90.6633,1.0,6.7,160.0,9.8,'11111222,11111222,11111222' 
LUMCON,ioos:station:LUMCON:101:1,2008-05-01T08:00:00Z,29.2533,-90.6633,1.0,7.2,160.0,9.3,'11111222,11111222,11111222' 
LUMCON,ioos:station:LUMCON:101:1,2008-05-01T09:00:00Z,29.2533,-90.6633,1.0,8.2,160.0,9.8,'11111222,11111222,11111222' 
LUMCON,ioos:station:LUMCON:101:1,2008-05-01T10:00:00Z,29.2533,-90.6633,1.0,6.7,170.0,9.3,'11111222,11111222,11111222' 
LUMCON,ioos:station:LUMCON:101:1,2008-05-01T11:00:00Z,29.2533,-90.6633,1.0,5.7,170.0,8.2,'11111222,11111222,11111222' 
LUMCON,ioos:station:LUMCON:101:1,2008-05-01T12:00:00Z,29.2533,-90.6633,1.0,4.6,170.0,6.7,'11111222,11111222,11111222' 
LUMCON,ioos:station:LUMCON:101:1,2008-05-01T13:00:00Z,29.2533,-90.6633,1.0,4.6,180.0,7.2,'11111222,11111222,11111222' 
LUMCON,ioos:station:LUMCON:101:1,2008-05-01T14:00:00Z,29.2533,-90.6633,1.0,6.7,160.0,8.2,'11111222,11111222,11111222' 
LUMCON,ioos:station:LUMCON:101:1,2008-05-01T15:00:00Z,29.2533,-90.6633,1.0,6.2,150.0,8.2,'11111222,11111222,11111222' 
LUMCON,ioos:station:LUMCON:101:1,2008-05-01T16:00:00Z,29.2533,-90.6633,1.0,6.2,150.0,8.2,'11111222,11111222,11111222' 
LUMCON,ioos:station:LUMCON:101:1,2008-05-01T17:00:00Z,29.2533,-90.6633,1.0,6.2,140.0,8.8,'11111222,11111222,11111222' 
LUMCON,ioos:station:LUMCON:101:1,2008-05-01T18:00:00Z,29.2533,-90.6633,1.0,6.7,150.0,8.2,'11111222,11111222,11111222' 
LUMCON,ioos:station:LUMCON:101:1,2008-05-01T19:00:00Z,29.2533,-90.6633,1.0,6.7,150.0,9.3,'11111222,11111222,11111222' 
LUMCON,ioos:station:LUMCON:101:1,2008-05-01T20:00:00Z,29.2533,-90.6633,1.0,7.2,130.0,8.8,'11111222,11111222,11111222' 
LUMCON,ioos:station:LUMCON:101:1,2008-05-01T21:00:00Z,29.2533,-90.6633,1.0,5.7,130.0,7.7,'11111222,11111222,11111222' 
LUMCON,ioos:station:LUMCON:101:1,2008-05-01T22:00:00Z,29.2533,-90.6633,1.0,6.2,130.0,8.8,'11111222,11111222,11111222' 
LUMCON,ioos:station:LUMCON:101:1,2008-05-01T23:00:00Z,29.2533,-90.6633,1.0,6.2,130.0,8.2,'11111222,11111222,11111222' 
LUMCON,ioos:station:LUMCON:101:1,2008-05-02T00:00:00Z,29.2533,-90.6633,1.0,6.7,130.0,9.3,'11111222,11111222,11111222' 
LUMCON,ioos:station:LUMCON:101:1,2008-05-02T01:00:00Z,29.2533,-90.6633,1.0,6.2,130.0,9.3,'11111222,11111222,11111222' 
LUMCON,ioos:station:LUMCON:101:1,2008-05-02T02:00:00Z,29.2533,-90.6633,1.0,7.2,140.0,9.3,'11111222,11111222,11111222' 
LUMCON,ioos:station:LUMCON:101:1,2008-05-02T03:00:00Z,29.2533,-90.6633,1.0,8.2,140.0,9.8,'11111222,11111222,11111222' 
LUMCON,ioos:station:LUMCON:101:1,2008-05-02T04:00:00Z,29.2533,-90.6633,1.0,7.2,140.0,9.8,'11111222,11111222,11111222' 
LUMCON,ioos:station:LUMCON:101:1,2008-05-02T05:00:00Z,29.2533,-90.6633,1.0,7.7,140.0,9.8,'11111222,11111222,11111222' 
LUMCON,ioos:station:LUMCON:101:1,2008-05-02T06:00:00Z,29.2533,-90.6633,1.0,7.7,150.0,9.8,'11111222,11111222,11111222' 
LUMCON,ioos:station:LUMCON:101:1,2008-05-02T07:00:00Z,29.2533,-90.6633,1.0,7.7,150.0,9.3,'11111222,11111222,11111222' 
LUMCON,ioos:station:LUMCON:101:1,2008-05-02T08:00:00Z,29.2533,-90.6633,1.0,7.7,150.0,9.8,'11111222,11111222,11111222' 
LUMCON,ioos:station:LUMCON:101:1,2008-05-02T09:00:00Z,29.2533,-90.6633,1.0,7.2,150.0,9.8,'11111222,11111222,11111222' 
LUMCON,ioos:station:LUMCON:101:1,2008-05-02T10:00:00Z,29.2533,-90.6633,1.0,7.7,150.0,9.3,'11111222,11111222,11111222' 
LUMCON,ioos:station:LUMCON:101:1,2008-05-02T11:00:00Z,29.2533,-90.6633,1.0,6.7,150.0,8.8,'11111222,11111222,11111222' 
LUMCON,ioos:station:LUMCON:101:1,2008-05-02T12:00:00Z,29.2533,-90.6633,1.0,6.7,160.0,8.8,'11111222,11111222,11111222' 
LUMCON,ioos:station:LUMCON:101:1,2008-05-02T13:00:00Z,29.2533,-90.6633,1.0,6.2,150.0,8.2,'11111222,11111222,11111222' 
LUMCON,ioos:station:LUMCON:101:1,2008-05-02T14:00:00Z,29.2533,-90.6633,1.0,7.2,150.0,9.3,'11111222,11111222,11111222' 
LUMCON,ioos:station:LUMCON:101:1,2008-05-04T03:00:00Z,29.2533,-90.6633,1.0,3.1,150.0,4.1,'11111222,11111222,11111222' 
LUMCON,ioos:station:LUMCON:101:1,2008-05-05T10:00:00Z,29.2533,-90.6633,1.0,2.1,320.0,2.6,'11111222,11111222,11111222' 
LUMCON,ioos:station:LUMCON:101:1,2008-05-05T16:00:00Z,29.2533,-90.6633,1.0,2.6,70.0,5.1,'11111222,11111222,11111222' 
LUMCON,ioos:station:LUMCON:101:1,2008-05-05T17:00:00Z,29.2533,-90.6633,1.0,3.6,80.0,5.1,'11111222,11111222,11111222' 
LUMCON,ioos:station:LUMCON:101:1,2008-05-05T18:00:00Z,29.2533,-90.6633,1.0,3.6,80.0,4.6,'11111222,11111222,11111222' 
LUMCON,ioos:station:LUMCON:101:1,2008-05-05T19:00:00Z,29.2533,-90.6633,1.0,3.1,80.0,5.7,'11111222,11111222,11111222' 
LUMCON,ioos:station:LUMCON:101:1,2008-05-05T20:00:00Z,29.2533,-90.6633,1.0,2.6,90.0,4.1,'11111222,11111222,11111222' 
LUMCON,ioos:station:LUMCON:101:1,2008-05-05T21:00:00Z,29.2533,-90.6633,1.0,2.1,130.0,3.6,'11111222,11111222,11111222' 
LUMCON,ioos:station:LUMCON:101:1,2008-05-05T22:00:00Z,29.2533,-90.6633,1.0,2.1,90.0,3.1,'11111222,11111222,11111222' 
LUMCON,ioos:station:LUMCON:101:1,2008-05-05T23:00:00Z,29.2533,-90.6633,1.0,1.0,90.0,2.6,'11111222,11111222,11111222' 
LUMCON,ioos:station:LUMCON:101:1,2008-05-06T00:00:00Z,29.2533,-90.6633,1.0,0.5,100.0,1.5,'11111222,11111222,11111222' 
LUMCON,ioos:station:LUMCON:101:1,2008-05-06T01:00:00Z,29.2533,-90.6633,1.0,1.0,150.0,1.5,'11111222,11111222,11111222' 
LUMCON,ioos:station:LUMCON:101:1,2008-05-06T02:00:00Z,29.2533,-90.6633,1.0,0.5,110.0,1.0,'11111222,11111222,11111222' 
LUMCON,ioos:station:LUMCON:101:1,2008-05-06T03:00:00Z,29.2533,-90.6633,1.0,1.0,280.0,1.0,'11111222,11111222,11111222' 
LUMCON,ioos:station:LUMCON:101:1,2008-05-06T04:00:00Z,29.2533,-90.6633,1.0,2.6,30.0,3.1,'11111222,11111222,11111222' 
LUMCON,ioos:station:LUMCON:101:1,2008-05-06T05:00:00Z,29.2533,-90.6633,1.0,2.6,30.0,2.6,'11111222,11111222,11111222' 
LUMCON,ioos:station:LUMCON:101:1,2008-05-06T06:00:00Z,29.2533,-90.6633,1.0,3.1,40.0,3.6,'11111222,11111222,11111222' 
LUMCON,ioos:station:LUMCON:101:1,2008-05-06T07:00:00Z,29.2533,-90.6633,1.0,1.5,50.0,2.6,'11111222,11111222,11111222' 
LUMCON,ioos:station:LUMCON:101:1,2008-05-06T08:00:00Z,29.2533,-90.6633,1.0,1.5,40.0,2.6,'11111222,11111222,11111222' 
LUMCON,ioos:station:LUMCON:101:1,2008-05-06T09:00:00Z,29.2533,-90.6633,1.0,3.6,30.0,4.1,'11111222,11111222,11111222' 
LUMCON,ioos:station:LUMCON:101:1,2008-05-06T10:00:00Z,29.2533,-90.6633,1.0,3.1,60.0,4.1,'11111222,11111222,11111222' 
LUMCON,ioos:station:LUMCON:101:1,2008-05-06T11:00:00Z,29.2533,-90.6633,1.0,2.6,60.0,4.1,'11111222,11111222,11111222' 
LUMCON,ioos:station:LUMCON:101:1,2008-05-06T12:00:00Z,29.2533,-90.6633,1.0,2.6,50.0,4.6,'11111222,11111222,11111222' 
LUMCON,ioos:station:LUMCON:101:1,2008-05-06T13:00:00Z,29.2533,-90.6633,1.0,3.1,70.0,4.6,'11111222,11111222,11111222' 
LUMCON,ioos:station:LUMCON:101:1,2008-05-06T14:00:00Z,29.2533,-90.6633,1.0,3.6,90.0,5.7,'11111222,11111222,11111222' 
LUMCON,ioos:station:LUMCON:101:1,2008-05-06T15:00:00Z,29.2533,-90.6633,1.0,3.1,110.0,4.6,'11111222,11111222,11111222' 
LUMCON,ioos:station:LUMCON:101:1,2008-05-06T16:00:00Z,29.2533,-90.6633,1.0,3.6,110.0,4.6,'11111222,11111222,11111222' 
LUMCON,ioos:station:LUMCON:101:1,2008-05-06T17:00:00Z,29.2533,-90.6633,1.0,4.1,120.0,5.1,'11111222,11111222,11111222' 
LUMCON,ioos:station:LUMCON:101:1,2008-05-06T18:00:00Z,29.2533,-90.6633,1.0,3.6,140.0,5.1,'11111222,11111222,11111222' 
LUMCON,ioos:station:LUMCON:101:1,2008-05-06T19:00:00Z,29.2533,-90.6633,1.0,3.1,130.0,4.6,'11111222,11111222,11111222' 
LUMCON,ioos:station:LUMCON:101:1,2008-05-06T20:00:00Z,29.2533,-90.6633,1.0,3.1,120.0,4.1,'11111222,11111222,11111222' 
LUMCON,ioos:station:LUMCON:101:1,2008-05-06T21:00:00Z,29.2533,-90.6633,1.0,4.1,130.0,5.7,'11111222,11111222,11111222' 
LUMCON,ioos:station:LUMCON:101:1,2008-05-06T22:00:00Z,29.2533,-90.6633,1.0,3.6,150.0,5.1,'11111222,11111222,11111222' 
LUMCON,ioos:station:LUMCON:101:1,2008-05-06T23:00:00Z,29.2533,-90.6633,1.0,4.1,140.0,6.2,'11111222,11111222,11111222' 
LUMCON,ioos:station:LUMCON:101:1,2008-05-07T00:00:00Z,29.2533,-90.6633,1.0,3.6,150.0,5.1,'11111222,11111222,11111222' 
LUMCON,ioos:station:LUMCON:101:1,2008-05-07T01:00:00Z,29.2533,-90.6633,1.0,4.1,140.0,6.7,'11111222,11111222,11111222' 
LUMCON,ioos:station:LUMCON:101:1,2008-05-07T02:00:00Z,29.2533,-90.6633,1.0,4.1,150.0,5.7,'11111222,11111222,11111222' 
LUMCON,ioos:station:LUMCON:101:1,2008-05-07T03:00:00Z,29.2533,-90.6633,1.0,3.1,170.0,4.6,'11111222,11111222,11111222' 
LUMCON,ioos:station:LUMCON:101:1,2008-05-07T04:00:00Z,29.2533,-90.6633,1.0,3.6,180.0,4.6,'11111222,11111222,11111222' 
LUMCON,ioos:station:LUMCON:101:1,2008-05-07T05:00:00Z,29.2533,-90.6633,1.0,3.6,170.0,4.6,'11111222,11111222,11111222' 
LUMCON,ioos:station:LUMCON:101:1,2008-05-07T06:00:00Z,29.2533,-90.6633,1.0,4.1,170.0,5.7,'11111222,11111222,11111222' 
LUMCON,ioos:station:LUMCON:101:1,2008-05-07T07:00:00Z,29.2533,-90.6633,1.0,3.1,170.0,4.1,'11111222,11111222,11111222' 
LUMCON,ioos:station:LUMCON:101:1,2008-05-07T08:00:00Z,29.2533,-90.6633,1.0,3.1,170.0,5.1,'11111222,11111222,11111222' 
LUMCON,ioos:station:LUMCON:101:1,2008-05-07T09:00:00Z,29.2533,-90.6633,1.0,3.6,170.0,5.7,'11111222,11111222,11111222' 
LUMCON,ioos:station:LUMCON:101:1,2008-05-07T10:00:00Z,29.2533,-90.6633,1.0,4.6,150.0,6.2,'11111222,11111222,11111222' 
LUMCON,ioos:station:LUMCON:101:1,2008-05-07T11:00:00Z,29.2533,-90.6633,1.0,4.1,140.0,6.2,'11111222,11111222,11111222' 
LUMCON,ioos:station:LUMCON:101:1,2008-05-07T12:00:00Z,29.2533,-90.6633,1.0,5.7,140.0,7.2,'11111222,11111222,11111222' 
LUMCON,ioos:station:LUMCON:101:1,2008-05-07T13:00:00Z,29.2533,-90.6633,1.0,5.7,140.0,7.7,'11111222,11111222,11111222' 
LUMCON,ioos:station:LUMCON:101:1,2008-05-07T14:00:00Z,29.2533,-90.6633,1.0,6.2,140.0,8.2,'11111222,11111222,11111222' 
LUMCON,ioos:station:LUMCON:101:1,2008-05-07T15:00:00Z,29.2533,-90.6633,1.0,6.7,150.0,8.8,'11111222,11111222,11111222' 
LUMCON,ioos:station:LUMCON:101:1,2008-05-07T16:00:00Z,29.2533,-90.6633,1.0,7.7,150.0,9.8,'11111222,11111222,11111222' 
LUMCON,ioos:station:LUMCON:101:1,2008-05-07T17:00:00Z,29.2533,-90.6633,1.0,6.7,150.0,8.8,'11111222,11111222,11111222' 
LUMCON,ioos:station:LUMCON:101:1,2008-05-07T18:00:00Z,29.2533,-90.6633,1.0,7.7,160.0,9.8,'11111222,11111222,11111222' 
LUMCON,ioos:station:LUMCON:101:1,2008-05-07T19:00:00Z,29.2533,-90.6633,1.0,7.7,150.0,9.8,'11111222,11111222,11111222' 
LUMCON,ioos:station:LUMCON:101:1,2008-05-07T20:00:00Z,29.2533,-90.6633,1.0,8.2,150.0,9.8,'11111222,11111222,11111222' 
LUMCON,ioos:station:LUMCON:101:1,2008-05-07T21:00:00Z,29.2533,-90.6633,1.0,7.7,160.0,9.3,'11111222,11111222,11111222' 
LUMCON,ioos:station:LUMCON:101:1,2008-05-07T22:00:00Z,29.2533,-90.6633,1.0,6.7,180.0,9.8,'11111222,11111222,11111222' 
LUMCON,ioos:station:LUMCON:101:1,2008-05-07T23:00:00Z,29.2533,-90.6633,1.0,5.7,170.0,8.8,'11111222,11111222,11111222' 
LUMCON,ioos:station:LUMCON:101:1,2008-05-08T00:00:00Z,29.2533,-90.6633,1.0,6.2,160.0,9.3,'11111222,11111222,11111222' 
LUMCON,ioos:station:LUMCON:101:1,2008-05-08T01:00:00Z,29.2533,-90.6633,1.0,7.7,160.0,9.3,'11111222,11111222,11111222' 
LUMCON,ioos:station:LUMCON:101:1,2008-05-08T02:00:00Z,29.2533,-90.6633,1.0,7.7,170.0,9.8,'11111222,11111222,11111222' 
LUMCON,ioos:station:LUMCON:101:1,2008-05-08T03:00:00Z,29.2533,-90.6633,1.0,8.2,170.0,9.8,'11111222,11111222,11111222' 
LUMCON,ioos:station:LUMCON:101:1,2008-05-08T04:00:00Z,29.2533,-90.6633,1.0,7.2,180.0,9.8,'11111222,11111222,11111222' 
LUMCON,ioos:station:LUMCON:101:1,2008-05-08T05:00:00Z,29.2533,-90.6633,1.0,6.2,190.0,9.3,'11111222,11111222,11111222' 
LUMCON,ioos:station:LUMCON:101:1,2008-05-08T06:00:00Z,29.2533,-90.6633,1.0,5.7,190.0,7.7,'11111222,11111222,11111222' 
LUMCON,ioos:station:LUMCON:101:1,2008-05-08T07:00:00Z,29.2533,-90.6633,1.0,6.7,200.0,9.3,'11111222,11111222,11111222' 
LUMCON,ioos:station:LUMCON:101:1,2008-05-08T08:00:00Z,29.2533,-90.6633,1.0,6.2,200.0,8.2,'11111222,11111222,11111222' 
LUMCON,ioos:station:LUMCON:101:1,2008-05-08T09:00:00Z,29.2533,-90.6633,1.0,6.2,190.0,8.8,'11111222,11111222,11111222' 
LUMCON,ioos:station:LUMCON:101:1,2008-05-08T10:00:00Z,29.2533,-90.6633,1.0,6.2,200.0,9.3,'11111222,11111222,11111222' 
LUMCON,ioos:station:LUMCON:101:1,2008-05-08T11:00:00Z,29.2533,-90.6633,1.0,7.2,190.0,9.3,'11111222,11111222,11111222' 
LUMCON,ioos:station:LUMCON:101:1,2008-05-08T12:00:00Z,29.2533,-90.6633,1.0,7.2,180.0,9.8,'11111222,11111222,11111222' 
LUMCON,ioos:station:LUMCON:101:1,2008-05-08T13:00:00Z,29.2533,-90.6633,1.0,8.2,180.0,9.8,'11111222,11111222,11111222' 
LUMCON,ioos:station:LUMCON:101:1,2008-05-08T14:00:00Z,29.2533,-90.6633,1.0,8.2,180.0,9.8,'11111222,11111222,11111222' 
LUMCON,ioos:station:LUMCON:101:1,2008-05-08T15:00:00Z,29.2533,-90.6633,1.0,8.8,190.0,9.3,'11111222,11111222,11111222' 
LUMCON,ioos:station:LUMCON:101:1,2008-05-08T16:00:00Z,29.2533,-90.6633,1.0,8.8,190.0,9.8,'11111222,11111222,11111222' 
LUMCON,ioos:station:LUMCON:101:1,2008-05-08T17:00:00Z,29.2533,-90.6633,1.0,10.3,210.0,13.4,'11111222,11111222,11111222' 
LUMCON,ioos:station:LUMCON:101:1,2008-05-08T18:00:00Z,29.2533,-90.6633,1.0,8.8,220.0,9.3,'11111222,11111222,11111222' 
LUMCON,ioos:station:LUMCON:101:1,2008-05-08T19:00:00Z,29.2533,-90.6633,1.0,9.3,240.0,11.8,'11111222,11111222,11111222' 
LUMCON,ioos:station:LUMCON:101:1,2008-05-08T20:00:00Z,29.2533,-90.6633,1.0,8.8,230.0,9.8,'11111222,11111222,11111222' 
LUMCON,ioos:station:LUMCON:101:1,2008-05-08T21:00:00Z,29.2533,-90.6633,1.0,9.8,230.0,99.0,'11111222,11111222,11144222' 
LUMCON,ioos:station:LUMCON:101:1,2008-05-08T22:00:00Z,29.2533,-90.6633,1.0,8.2,230.0,9.8,'11111222,11111222,11111222' 
LUMCON,ioos:station:LUMCON:101:1,2008-05-08T23:00:00Z,29.2533,-90.6633,1.0,8.2,230.0,9.8,'11111222,11111222,11111222' 
LUMCON,ioos:station:LUMCON:101:1,2008-05-09T00:00:00Z,29.2533,-90.6633,1.0,7.7,230.0,9.8,'11111222,11111222,11111222' 
LUMCON,ioos:station:LUMCON:101:1,2008-05-09T01:00:00Z,29.2533,-90.6633,1.0,5.7,240.0,8.2,'11111222,11111222,11111222' 
LUMCON,ioos:station:LUMCON:101:1,2008-05-09T02:00:00Z,29.2533,-90.6633,1.0,6.2,240.0,8.8,'11111222,11111222,11111222' 
LUMCON,ioos:station:LUMCON:101:1,2008-05-09T03:00:00Z,29.2533,-90.6633,1.0,4.1,240.0,6.7,'11111222,11111222,11111222' 
LUMCON,ioos:station:LUMCON:101:1,2008-05-09T04:00:00Z,29.2533,-90.6633,1.0,3.6,230.0,5.7,'11111222,11111222,11111222' 
LUMCON,ioos:station:LUMCON:101:1,2008-05-09T05:00:00Z,29.2533,-90.6633,1.0,3.6,240.0,4.6,'11111222,11111222,11111222' 
LUMCON,ioos:station:LUMCON:101:1,2008-05-09T06:00:00Z,29.2533,-90.6633,1.0,3.6,230.0,5.1,'11111222,11111222,11111222' 
LUMCON,ioos:station:LUMCON:101:1,2008-05-09T07:00:00Z,29.2533,-90.6633,1.0,4.1,230.0,5.1,'11111222,11111222,11111222' 
LUMCON,ioos:station:LUMCON:101:1,2008-05-09T08:00:00Z,29.2533,-90.6633,1.0,2.6,230.0,3.1,'11111222,11111222,11111222' 
LUMCON,ioos:station:LUMCON:101:1,2008-05-09T09:00:00Z,29.2533,-90.6633,1.0,2.1,230.0,3.1,'11111222,11111222,11111222' 
LUMCON,ioos:station:LUMCON:101:1,2008-05-09T10:00:00Z,29.2533,-90.6633,1.0,2.1,250.0,2.6,'11111222,11111222,11111222' 
LUMCON,ioos:station:LUMCON:101:1,2008-05-09T11:00:00Z,29.2533,-90.6633,1.0,2.1,250.0,2.6,'11111222,11111222,11111222' 
LUMCON,ioos:station:LUMCON:101:1,2008-05-09T12:00:00Z,29.2533,-90.6633,1.0,1.5,240.0,1.5,'11111222,11111222,11111222' 
LUMCON,ioos:station:LUMCON:101:1,2008-05-09T13:00:00Z,29.2533,-90.6633,1.0,3.1,220.0,4.6,'11111222,11111222,11111222' 
LUMCON,ioos:station:LUMCON:101:1,2008-05-09T14:00:00Z,29.2533,-90.6633,1.0,4.6,200.0,6.7,'11111222,11111222,11111222' 
LUMCON,ioos:station:LUMCON:101:1,2008-05-09T15:00:00Z,29.2533,-90.6633,1.0,5.1,200.0,7.2,'11111222,11111222,11111222' 
LUMCON,ioos:station:LUMCON:101:1,2008-05-09T16:00:00Z,29.2533,-90.6633,1.0,7.2,210.0,9.3,'11111222,11111222,11111222' 
LUMCON,ioos:station:LUMCON:101:1,2008-05-09T17:00:00Z,29.2533,-90.6633,1.0,6.7,200.0,8.8,'11111222,11111222,11111222' 
LUMCON,ioos:station:LUMCON:101:1,2008-05-09T18:00:00Z,29.2533,-90.6633,1.0,6.2,200.0,7.7,'11111222,11111222,11111222' 
LUMCON,ioos:station:LUMCON:101:1,2008-05-09T19:00:00Z,29.2533,-90.6633,1.0,5.7,210.0,8.2,'11111222,11111222,11111222' 
LUMCON,ioos:station:LUMCON:101:1,2008-05-09T20:00:00Z,29.2533,-90.6633,1.0,5.1,220.0,7.7,'11111222,11111222,11111222' 
LUMCON,ioos:station:LUMCON:101:1,2008-05-09T21:00:00Z,29.2533,-90.6633,1.0,6.2,230.0,7.7,'11111222,11111222,11111222' 
LUMCON,ioos:station:LUMCON:101:1,2008-05-09T22:00:00Z,29.2533,-90.6633,1.0,5.1,210.0,7.2,'11111222,11111222,11111222' 
LUMCON,ioos:station:LUMCON:101:1,2008-05-09T23:00:00Z,29.2533,-90.6633,1.0,4.1,220.0,5.7,'11111222,11111222,11111222' 
LUMCON,ioos:station:LUMCON:101:1,2008-05-10T00:00:00Z,29.2533,-90.6633,1.0,4.6,200.0,5.7,'11111222,11111222,11111222' 
LUMCON,ioos:station:LUMCON:101:1,2008-05-10T01:00:00Z,29.2533,-90.6633,1.0,3.6,210.0,5.1,'11111222,11111222,11111222' 
LUMCON,ioos:station:LUMCON:101:1,2008-05-10T02:00:00Z,29.2533,-90.6633,1.0,3.6,200.0,4.6,'11111222,11111222,11111222' 
LUMCON,ioos:station:LUMCON:101:1,2008-05-10T03:00:00Z,29.2533,-90.6633,1.0,3.1,210.0,4.1,'11111222,11111222,11111222' 
LUMCON,ioos:station:LUMCON:101:1,2008-05-10T04:00:00Z,29.2533,-90.6633,1.0,3.6,210.0,4.6,'11111222,11111222,11111222' 
LUMCON,ioos:station:LUMCON:101:1,2008-05-10T05:00:00Z,29.2533,-90.6633,1.0,4.6,210.0,5.7,'11111222,11111222,11111222' 
LUMCON,ioos:station:LUMCON:101:1,2008-05-10T06:00:00Z,29.2533,-90.6633,1.0,4.1,210.0,5.7,'11111222,11111222,11111222' 
LUMCON,ioos:station:LUMCON:101:1,2008-05-10T07:00:00Z,29.2533,-90.6633,1.0,2.6,220.0,3.1,'11111222,11111222,11111222' 
LUMCON,ioos:station:LUMCON:101:1,2008-05-10T08:00:00Z,29.2533,-90.6633,1.0,3.1,210.0,4.1,'11111222,11111222,11111222' 
LUMCON,ioos:station:LUMCON:101:1,2008-05-10T09:00:00Z,29.2533,-90.6633,1.0,2.1,230.0,2.6,'11111222,11111222,11111222' 
LUMCON,ioos:station:LUMCON:101:1,2008-05-10T10:00:00Z,29.2533,-90.6633,1.0,2.1,200.0,3.1,'11111222,11111222,11111222' 
LUMCON,ioos:station:LUMCON:101:1,2008-05-10T11:00:00Z,29.2533,-90.6633,1.0,3.1,200.0,5.1,'11111222,11111222,11111222' 
LUMCON,ioos:station:LUMCON:101:1,2008-05-10T12:00:00Z,29.2533,-90.6633,1.0,2.6,210.0,3.6,'11111222,11111222,11111222' 
LUMCON,ioos:station:LUMCON:101:1,2008-05-10T13:00:00Z,29.2533,-90.6633,1.0,4.6,210.0,5.7,'11111222,11111222,11111222' 
LUMCON,ioos:station:LUMCON:101:1,2008-05-10T14:00:00Z,29.2533,-90.6633,1.0,5.1,200.0,6.7,'11111222,11111222,11111222' 
LUMCON,ioos:station:LUMCON:101:1,2008-05-10T15:00:00Z,29.2533,-90.6633,1.0,5.7,210.0,7.7,'11111222,11111222,11111222' 
LUMCON,ioos:station:LUMCON:101:1,2008-05-10T16:00:00Z,29.2533,-90.6633,1.0,5.1,190.0,7.2,'11111222,11111222,11111222' 
LUMCON,ioos:station:LUMCON:101:1,2008-05-10T17:00:00Z,29.2533,-90.6633,1.0,5.7,200.0,7.7,'11111222,11111222,11111222' 
LUMCON,ioos:station:LUMCON:101:1,2008-05-10T18:00:00Z,29.2533,-90.6633,1.0,5.7,200.0,7.7,'11111222,11111222,11111222' 
LUMCON,ioos:station:LUMCON:101:1,2008-05-10T19:00:00Z,29.2533,-90.6633,1.0,6.2,190.0,8.2,'11111222,11111222,11111222' 
LUMCON,ioos:station:LUMCON:101:1,2008-05-10T20:00:00Z,29.2533,-90.6633,1.0,5.1,190.0,7.2,'11111222,11111222,11111222' 
LUMCON,ioos:station:LUMCON:101:1,2008-05-10T21:00:00Z,29.2533,-90.6633,1.0,5.7,190.0,8.2,'11111222,11111222,11111222' 
LUMCON,ioos:station:LUMCON:101:1,2008-05-10T23:00:00Z,29.2533,-90.6633,1.0,6.2,200.0,8.2,'11111222,11111222,11111222' 
LUMCON,ioos:station:LUMCON:101:1,2008-05-11T00:00:00Z,29.2533,-90.6633,1.0,6.7,200.0,8.2,'11111222,11111222,11111222' 
LUMCON,ioos:station:LUMCON:101:1,2008-05-11T01:00:00Z,29.2533,-90.6633,1.0,6.7,200.0,8.8,'11111222,11111222,11111222' 
LUMCON,ioos:station:LUMCON:101:1,2008-05-11T02:00:00Z,29.2533,-90.6633,1.0,6.2,190.0,8.2,'11111222,11111222,11111222' 
LUMCON,ioos:station:LUMCON:101:1,2008-05-11T03:00:00Z,29.2533,-90.6633,1.0,7.7,190.0,9.3,'11111222,11111222,11111222' 
LUMCON,ioos:station:LUMCON:101:1,2008-05-11T04:00:00Z,29.2533,-90.6633,1.0,7.7,200.0,9.8,'11111222,11111222,11111222' 
LUMCON,ioos:station:LUMCON:101:1,2008-05-11T05:00:00Z,29.2533,-90.6633,1.0,7.7,210.0,9.8,'11111222,11111222,11111222' 
LUMCON,ioos:station:LUMCON:101:1,2008-05-11T07:00:00Z,29.2533,-90.6633,1.0,7.2,210.0,9.8,'11111222,11111222,11111222' 
LUMCON,ioos:station:LUMCON:101:1,2008-05-11T08:00:00Z,29.2533,-90.6633,1.0,7.7,230.0,9.8,'11111222,11111222,11111222' 
LUMCON,ioos:station:LUMCON:101:1,2008-05-11T09:00:00Z,29.2533,-90.6633,1.0,5.1,250.0,7.2,'11111222,11111222,11111222' 
LUMCON,ioos:station:LUMCON:101:1,2008-05-11T10:00:00Z,29.2533,-90.6633,1.0,5.1,250.0,7.2,'11111222,11111222,11111222' 
LUMCON,ioos:station:LUMCON:101:1,2008-05-11T11:00:00Z,29.2533,-90.6633,1.0,4.6,250.0,6.7,'11111222,11111222,11111222' 
LUMCON,ioos:station:LUMCON:101:1,2008-05-11T12:00:00Z,29.2533,-90.6633,1.0,4.6,250.0,6.2,'11111222,11111222,11111222' 
LUMCON,ioos:station:LUMCON:101:1,2008-05-11T13:00:00Z,29.2533,-90.6633,1.0,5.1,250.0,7.2,'11111222,11111222,11111222' 
LUMCON,ioos:station:LUMCON:101:1,2008-05-11T14:00:00Z,29.2533,-90.6633,1.0,3.6,230.0,5.1,'11111222,11111222,11111222' 
LUMCON,ioos:station:LUMCON:101:1,2008-05-11T15:00:00Z,29.2533,-90.6633,1.0,5.1,280.0,6.7,'11111222,11111222,11111222' 
LUMCON,ioos:station:LUMCON:101:1,2008-05-11T16:00:00Z,29.2533,-90.6633,1.0,4.6,360.0,6.2,'11111222,11144222,11111222' 
LUMCON,ioos:station:LUMCON:101:1,2008-05-11T17:00:00Z,29.2533,-90.6633,1.0,4.6,360.0,6.2,'11111222,11144222,11111222' 
LUMCON,ioos:station:LUMCON:101:1,2008-05-11T18:00:00Z,29.2533,-90.6633,1.0,4.1,360.0,6.2,'11111222,11144222,11111222' 
LUMCON,ioos:station:LUMCON:101:1,2008-05-11T19:00:00Z,29.2533,-90.6633,1.0,4.1,310.0,6.7,'11111222,11111222,11111222' 
LUMCON,ioos:station:LUMCON:101:1,2008-05-11T20:00:00Z,29.2533,-90.6633,1.0,5.1,310.0,6.7,'11111222,11111222,11111222' 
LUMCON,ioos:station:LUMCON:101:1,2008-05-11T21:00:00Z,29.2533,-90.6633,1.0,5.1,310.0,7.2,'11111222,11111222,11111222' 
LUMCON,ioos:station:LUMCON:101:1,2008-05-11T22:00:00Z,29.2533,-90.6633,1.0,5.7,310.0,7.7,'11111222,11111222,11111222' 
LUMCON,ioos:station:LUMCON:101:1,2008-05-11T23:00:00Z,29.2533,-90.6633,1.0,6.2,330.0,7.7,'11111222,11111222,11111222' 
LUMCON,ioos:station:LUMCON:101:1,2008-05-12T00:00:00Z,29.2533,-90.6633,1.0,5.7,330.0,7.7,'11111222,11111222,11111222' 
LUMCON,ioos:station:LUMCON:101:1,2008-05-12T01:00:00Z,29.2533,-90.6633,1.0,4.6,340.0,6.2,'11111222,11111222,11111222' 
LUMCON,ioos:station:LUMCON:101:1,2008-05-12T02:00:00Z,29.2533,-90.6633,1.0,4.6,340.0,6.2,'11111222,11111222,11111222' 
LUMCON,ioos:station:LUMCON:101:1,2008-05-12T03:00:00Z,29.2533,-90.6633,1.0,5.1,340.0,6.7,'11111222,11111222,11111222' 
LUMCON,ioos:station:LUMCON:101:1,2008-05-12T04:00:00Z,29.2533,-90.6633,1.0,6.7,0.0,9.3,'11111222,11111222,11111222' 
LUMCON,ioos:station:LUMCON:101:1,2008-05-12T05:00:00Z,29.2533,-90.6633,1.0,6.2,10.0,8.8,'11111222,11111222,11111222' 
LUMCON,ioos:station:LUMCON:101:1,2008-05-12T06:00:00Z,29.2533,-90.6633,1.0,5.7,20.0,7.7,'11111222,11111222,11111222' 
LUMCON,ioos:station:LUMCON:101:1,2008-05-12T07:00:00Z,29.2533,-90.6633,1.0,3.6,20.0,4.6,'11111222,11111222,11111222' 
LUMCON,ioos:station:LUMCON:101:1,2008-05-12T08:00:00Z,29.2533,-90.6633,1.0,4.6,20.0,5.7,'11111222,11111222,11111222' 